Location: Ernez
(36.4595°N, 29.8755°E)
Time: 09:04:04
(UTC+00:00)

IRAS Rocket - Pass Details

Date: 13 November 2025
Orbit: 845 x 876 km, 100.1° (Epoch: 04 December)

Event Time Altitude Azimuth Distance (km) Brightness Sun altitude
Rises 16:34:29 0° 166° (SSE) 3,444 7.3 -20.4°
Reaches altitude 10° 16:36:52 10° 167° (SSE) 2,507 6.6 -20.9°
Maximum altitude 16:42:27 82° 255° (WSW) 878 4.3 -22.0°
Drops below altitude 10° 16:48:01 10° 343° (NNW) 2,503 6.8 -23.1°
Sets 16:50:23 0° 345° (NNW) 3,438 7.5 -23.6°
